Location: Beaver Brook Trail
(44.0290°N, 71.8137°W)
Time: 01:38:51
(UTC+00:00)

Vanguard 1 Rocket - Pass Details

Date: 17 November 2024
Orbit: 650 x 4218 km, 34.3° (Epoch: 08 December)

Event Time Altitude Azimuth Distance (km) Brightness Sun altitude
Rises 22:29:21 0° 280° (W) 6,737 13.1 -12.7°
Reaches altitude 10° 22:36:32 10° 264° (W) 4,916 12.5 -14.0°
Maximum altitude 22:43:31 17° 231° (SW) 3,526 11.3 -15.2°
Drops below altitude 10° 22:48:37 10° 194° (SSW) 3,378 10.6 -16.1°
Sets 22:52:11 0° 173° (S) 3,893 10.7 -16.7°
